CES124 ZYTL-ZYHB

Flight info

Callsign CES124
Flight time N/A
Altitude 41100
Route VENOS A588 NULRA W206 MAGBI W656 ISLUK W629 LARUN LAR09A
Aircraft A359/H-SDE2E3GHIJ3J4J5LM1ORWXY/LB1D1

Departure

Time N/A
Airport Dalian Zhoushuizi International Airport (ZYTL)

Arrival

Time 2026-04-26 13:30
Airport Harbin Taiping International Airport (ZYHB)
Time Latitude Longitude Altitude Speed Heading
2026-04-26 12:36 40.18745 123.27951 40221 ft 483 kts 22°
2026-04-26 12:36 40.21687 123.30069 40538 ft 483 kts 22°
2026-04-26 12:36 40.24626 123.32192 40843 ft 484 kts 22°
2026-04-26 12:37 40.30586 123.36497 40940 ft 496 kts 23°
2026-04-26 12:37 40.36664 123.40907 40937 ft 504 kts 23°
2026-04-26 12:38 40.42799 123.45381 40944 ft 504 kts 23°
2026-04-26 12:38 40.48934 123.49860 40938 ft 504 kts 23°
2026-04-26 12:39 40.55065 123.54340 40936 ft 504 kts 23°
2026-04-26 12:39 40.61194 123.58827 40941 ft 504 kts 23°
2026-04-26 12:40 40.67339 123.63324 40943 ft 507 kts 23°
2026-04-26 12:40 40.73579 123.67890 40960 ft 518 kts 24°
2026-04-26 12:41 40.79839 123.72492 40943 ft 519 kts 24°
2026-04-26 12:41 40.86158 123.77143 40951 ft 519 kts 23°
2026-04-26 12:42 40.92520 123.81685 40949 ft 519 kts 23°
2026-04-26 12:42 40.98896 123.86205 40948 ft 520 kts 23°
2026-04-26 12:43 41.05267 123.90753 40979 ft 520 kts 23°
2026-04-26 12:43 41.11643 123.95331 40957 ft 521 kts 23°
2026-04-26 12:44 41.18020 123.99927 40955 ft 521 kts 23°
2026-04-26 12:44 41.24398 124.04530 40955 ft 522 kts 23°
2026-04-26 12:45 41.30741 124.09111 40956 ft 522 kts 23°
2026-04-26 12:45 41.36984 124.13627 40989 ft 522 kts 23°
2026-04-26 12:46 41.43216 124.18169 40959 ft 523 kts 24°
2026-04-26 12:46 41.49534 124.22919 40960 ft 524 kts 24°
2026-04-26 12:47 41.55903 124.27746 40964 ft 524 kts 24°
2026-04-26 12:47 41.62204 124.32517 40963 ft 524 kts 24°
2026-04-26 12:48 41.68573 124.37339 40963 ft 524 kts 24°
2026-04-26 12:48 41.74896 124.42135 40962 ft 524 kts 24°
2026-04-26 12:49 41.81260 124.46974 40964 ft 524 kts 24°
2026-04-26 12:49 41.87592 124.51799 40970 ft 523 kts 24°
2026-04-26 12:50 41.93885 124.56605 40967 ft 523 kts 24°
2026-04-26 12:50 42.00183 124.61407 40964 ft 523 kts 23°
2026-04-26 12:51 42.06669 124.65891 40955 ft 521 kts 21°
2026-04-26 12:51 42.13161 124.70219 40968 ft 521 kts 21°
2026-04-26 12:52 42.19658 124.74620 40974 ft 521 kts 22°
2026-04-26 12:52 42.26109 124.79055 40961 ft 521 kts 22°
2026-04-26 12:53 42.32586 124.83533 40966 ft 521 kts 22°
2026-04-26 12:53 42.39000 124.87975 40972 ft 521 kts 22°
2026-04-26 12:54 42.45458 124.92450 40961 ft 519 kts 22°
2026-04-26 12:54 42.51900 124.96922 40961 ft 519 kts 22°
2026-04-26 12:55 42.58289 125.01376 40957 ft 519 kts 22°
2026-04-26 12:55 42.64712 125.05865 40956 ft 520 kts 22°
2026-04-26 12:56 42.71122 125.10353 40968 ft 520 kts 22°
2026-04-26 12:56 42.77560 125.14872 40955 ft 520 kts 22°
2026-04-26 12:57 42.83962 125.19378 40954 ft 520 kts 22°
2026-04-26 12:57 42.90421 125.23876 40954 ft 519 kts 22°
2026-04-26 12:58 43.00057 125.30540 40956 ft 520 kts 22°
2026-04-26 12:58 43.05454 125.34296 40971 ft 519 kts 22°
2026-04-26 12:59 43.12893 125.39493 40948 ft 519 kts 22°
2026-04-26 12:59 43.18284 125.43269 40949 ft 519 kts 22°
2026-04-26 13:00 43.24727 125.47793 40951 ft 519 kts 22°
2026-04-26 13:00 43.31124 125.52293 40947 ft 519 kts 22°
2026-04-26 13:01 43.37541 125.56820 40946 ft 519 kts 22°
2026-04-26 13:01 43.43974 125.61368 40946 ft 519 kts 22°
2026-04-26 13:02 43.50430 125.65944 40948 ft 519 kts 22°
2026-04-26 13:02 43.56835 125.70495 40947 ft 519 kts 23°
2026-04-26 13:03 43.63253 125.75065 40945 ft 519 kts 23°
2026-04-26 13:03 43.69625 125.79614 40948 ft 519 kts 23°
2026-04-26 13:04 43.76158 125.84031 40964 ft 515 kts 16°
2026-04-26 13:04 43.82977 125.86316 40956 ft 507 kts
2026-04-26 13:05 43.89955 125.87870 40955 ft 508 kts
2026-04-26 13:05 43.96667 125.91180 40646 ft 512 kts 25°
2026-04-26 13:06 43.99647 125.93920 39941 ft 515 kts 32°
2026-04-26 13:06 44.02510 125.96942 39205 ft 517 kts 34°
2026-04-26 13:06 44.05359 125.99910 38438 ft 514 kts 29°
2026-04-26 13:06 44.08468 126.02327 37491 ft 508 kts 19°
2026-04-26 13:07 44.11744 126.03909 36554 ft 501 kts
2026-04-26 13:07 44.15124 126.04914 35705 ft 498 kts
2026-04-26 13:07 44.18545 126.05760 34827 ft 497 kts
2026-04-26 13:07 44.21980 126.06523 33938 ft 496 kts
2026-04-26 13:08 44.25374 126.07242 32853 ft 496 kts
2026-04-26 13:08 44.28784 126.07959 31720 ft 498 kts
2026-04-26 13:08 44.32215 126.08691 30823 ft 496 kts
2026-04-26 13:08 44.35592 126.09427 30129 ft 490 kts
2026-04-26 13:09 44.38956 126.10172 29360 ft 483 kts
2026-04-26 13:09 44.42250 126.10915 28656 ft 476 kts
2026-04-26 13:09 44.45519 126.11644 27993 ft 468 kts
2026-04-26 13:09 44.48699 126.12348 27337 ft 461 kts
2026-04-26 13:10 44.51846 126.13045 26690 ft 455 kts
2026-04-26 13:10 44.54945 126.13736 26034 ft 450 kts
2026-04-26 13:10 44.58023 126.14419 25391 ft 444 kts
2026-04-26 13:10 44.61056 126.15095 24728 ft 438 kts
2026-04-26 13:11 44.64032 126.15768 24085 ft 433 kts
2026-04-26 13:11 44.66971 126.16424 23426 ft 428 kts
2026-04-26 13:11 44.69897 126.17077 22706 ft 422 kts
2026-04-26 13:11 44.72799 126.17604 22004 ft 412 kts 359°
2026-04-26 13:12 44.75598 126.17882 21394 ft 404 kts 358°
2026-04-26 13:12 44.78401 126.18129 20784 ft 397 kts 359°
2026-04-26 13:12 44.81110 126.18368 20157 ft 391 kts 359°
2026-04-26 13:12 44.83825 126.18611 19506 ft 386 kts 360°
2026-04-26 13:13 44.86500 126.18852 18881 ft 381 kts
2026-04-26 13:13 44.89110 126.19089 18257 ft 377 kts
2026-04-26 13:13 44.91721 126.19327 17554 ft 372 kts
2026-04-26 13:13 44.94313 126.19565 16942 ft 366 kts
2026-04-26 13:14 44.96791 126.19798 16329 ft 361 kts
2026-04-26 13:14 44.99306 126.20027 15716 ft 357 kts
2026-04-26 13:14 45.01795 126.20234 15118 ft 354 kts 360°
2026-04-26 13:14 45.04195 126.19940 14508 ft 347 kts 344°
2026-04-26 13:15 45.06361 126.18594 13909 ft 341 kts 325°
2026-04-26 13:15 45.08080 126.16301 13276 ft 336 kts 306°
2026-04-26 13:15 45.09148 126.13412 12685 ft 332 kts 288°
2026-04-26 13:15 45.09552 126.10207 12105 ft 330 kts 276°
2026-04-26 13:16 45.09927 126.07046 11527 ft 326 kts 284°
2026-04-26 13:16 45.10531 126.03928 10938 ft 323 kts 287°
2026-04-26 13:16 45.11146 126.00907 10582 ft 312 kts 287°
2026-04-26 13:16 45.11712 125.98116 10434 ft 278 kts 287°
2026-04-26 13:17 45.12720 125.93143 10172 ft 253 kts 287°
2026-04-26 13:17 45.13202 125.90768 10056 ft 251 kts 287°
2026-04-26 13:18 45.14465 125.86004 9873 ft 269 kts 303°
2026-04-26 13:18 45.15569 125.83896 9484 ft 266 kts 309°
2026-04-26 13:18 45.18121 125.80098 8425 ft 266 kts 326°
2026-04-26 13:19 45.19835 125.79181 8107 ft 263 kts 350°
2026-04-26 13:19 45.21614 125.79359 7947 ft 254 kts 13°
2026-04-26 13:19 45.23130 125.80480 7815 ft 247 kts 36°
2026-04-26 13:19 45.24416 125.82048 7672 ft 242 kts 37°
2026-04-26 13:20 45.25694 125.83593 7485 ft 241 kts 37°
2026-04-26 13:20 45.26977 125.85114 7236 ft 240 kts 36°
2026-04-26 13:20 45.28262 125.86619 6975 ft 239 kts 36°
2026-04-26 13:20 45.29546 125.88111 6719 ft 238 kts 36°
2026-04-26 13:21 45.30827 125.89597 6467 ft 237 kts 36°
2026-04-26 13:21 45.31673 125.90576 6295 ft 237 kts 36°
2026-04-26 13:21 45.33372 125.92542 5971 ft 235 kts 35°
2026-04-26 13:21 45.34654 125.94021 5889 ft 239 kts 36°
2026-04-26 13:22 45.35935 125.95505 5556 ft 237 kts 36°
2026-04-26 13:22 45.37214 125.96987 5164 ft 238 kts 36°
2026-04-26 13:22 45.38496 125.98472 4798 ft 237 kts 36°
2026-04-26 13:22 45.39760 125.99941 4578 ft 230 kts 36°
2026-04-26 13:23 45.40971 126.01349 4440 ft 220 kts 36°
2026-04-26 13:23 45.42103 126.02668 4322 ft 204 kts 36°
2026-04-26 13:23 45.43138 126.03877 4145 ft 181 kts 36°
2026-04-26 13:23 45.44055 126.04946 3927 ft 161 kts 36°
2026-04-26 13:24 45.44880 126.05909 3746 ft 145 kts 35°
2026-04-26 13:24 45.45629 126.06783 3570 ft 133 kts 35°
2026-04-26 13:24 45.46319 126.07587 3411 ft 124 kts 34°
2026-04-26 13:24 45.46981 126.08352 3270 ft 122 kts 34°
2026-04-26 13:25 45.47643 126.09114 3116 ft 122 kts 34°
2026-04-26 13:25 45.48299 126.09876 2950 ft 121 kts 35°
2026-04-26 13:25 45.48950 126.10627 2886 ft 121 kts 33°
2026-04-26 13:25 45.49644 126.11321 2633 ft 122 kts 32°
2026-04-26 13:26 45.50283 126.12074 2470 ft 120 kts 36°
2026-04-26 13:26 45.50925 126.12833 2303 ft 119 kts 35°
2026-04-26 13:26 45.51578 126.13592 2154 ft 126 kts 35°
2026-04-26 13:26 45.52280 126.14407 1966 ft 131 kts 35°
2026-04-26 13:27 45.52985 126.15234 1775 ft 131 kts 36°
2026-04-26 13:27 45.53688 126.16064 1597 ft 131 kts 36°
2026-04-26 13:27 45.54416 126.16822 1593 ft 131 kts 31°
2026-04-26 13:27 45.55181 126.17535 1649 ft 131 kts 29°
2026-04-26 13:28 45.55947 126.18213 1605 ft 131 kts 24°
2026-04-26 13:28 45.56753 126.18823 1532 ft 130 kts 24°
2026-04-26 13:28 45.57521 126.19521 1421 ft 130 kts 32°
2026-04-26 13:28 45.58248 126.20304 1273 ft 131 kts 33°
2026-04-26 13:29 45.58954 126.21137 1147 ft 132 kts 37°
2026-04-26 13:29 45.59429 126.21681 1035 ft 133 kts 35°
2026-04-26 13:29 45.60404 126.22759 751 ft 134 kts 38°
2026-04-26 13:29 45.61131 126.23604 556 ft 135 kts 38°
2026-04-26 13:30 45.61837 126.24429 458 ft 115 kts 39°
2026-04-26 13:30 45.62231 126.24899 456 ft 32 kts 38°
2026-04-26 13:30 45.62427 126.25123 453 ft 46 kts 38°
2026-04-26 13:30 45.62670 126.25400 453 ft 45 kts 38°
2026-04-26 13:31 45.62918 126.25690 451 ft 47 kts 39°
2026-04-26 13:31 45.63137 126.25951 447 ft 28 kts 40°
2026-04-26 13:31 45.61407 126.23927 482 ft 135 kts 38°